STARLINK-30215, 57445

Orbit data source: Space-Track

STARLINK-30215, 57445 is a payload satellite owned by SpaceX/Seattle (US) in LEO that was launched on Mon, 24 Jul 2023 UTC via an FALCON 9 launch vehicle from the Air Force Eastern Test Range (AFETR). Payload-class satellites include a variety of spacecraft equipped with specific instruments for various scientific and technological missions. These include communications satellites like Starlink; space stations such as the ISS; scientific satellites like the Hubble; Earth observation satellites from companies like Planet Labs, Umbra, and HawkEye 360; GPS; miniature CubeSats for education and research; and military/defense satellites.

Loading next visibility...
Identifier
57445, 2023-105R
Orbit
LEO
Country
Flag of USUS
Related business
Manufacturer
SpaceX/Seattle
Mission
Operational Commercial Communications
Bus & Motor
STARLINK V2M, Unknown motor
Mass
730 kg wet, ~700 kg dry
Launch date (UTC)
2023-07-24 (3 years ago)
Launch vehicle
FALCON 9
Launch site
Air Force Eastern Test Range (AFETR)
Object type
Payload
Rocket body
Debris
Shape & HBR
Box + 2 Pan, 17.7 m
Radar Cross Section
33.884 m², Large (>1 m²)

Expand to show TLE details & history
Last TLE update: 2 days ago

TLE from 2 days ago
0 STARLINK-30215
1 57445U 23105R   26170.98396447  .00000655  00000-0  33324-4 0  9997
2 57445  43.0032  42.3813 0001299 268.6508  91.4195 15.27573804161061
Epoch: 2026-06-19T23:36Z
TLE epoch observation values (Epoch: 2026-06-19T23:36:54.530Z)
Latitude
Longitude
139.94899°
Altitude
482.866 km
Speed
7.626 km/s
True Right ascension
02h 49m 31s
True Declination
0° 00' 00"
Sunlit
Object was in daylight at epoch
Visualization orbit readout
Latitude
Unknown
Longitude
Unknown
Altitude
Unknown
Speed
Unknown
Apparent Right ascension
Unknown
Apparent Declination
Unknown
Sunlit
N/A
Visualization observer readout
Local Sidereal Time
21:24:15
Azimuth
Unknown
Elevation
Unknown
Doppler factor
Unknown
Orbital elements
Apogee altitude
485.904 km
Perigee altitude
484.121 km
Semi-major axis
6,863.149 km
Eccentricity
0.00013
Inclination
43.0032°
RAAN
42.3813°
Arg. of periapsis
268.6508°
True anomaly
91.43438°
Mean anomaly
91.4195°
Eccentric anomaly
91.42694°
Mean motion
3.81732 °/min
Orbital period
94.31 mins
BSTAR
0.000033324
Loading maneuver chart data...
Computing Atmospheric mass density...
Loading historical data...
Loading historical data...
Loading historical data...
Loading historical data...
Loading historical data...
Loading historical data...
Loading historical data...

Documentation

Showing up to 5 results
|